Location: Austin
(30.3000°N, 97.7500°W)
Time: 22:46:15
(UTC-05:00)

CZ-4B DEB - Pass Details

Date: 08 April 2026
Orbit: 834 x 853 km, 98.9° (Epoch: 20 April)

Event Time Altitude Azimuth Distance (km) Brightness Sun altitude
Exits shadow 22:04:26 52° 202° (SSW) 1,030 4.5 -27.4°
Maximum altitude 22:05:35 67° 258° (WSW) 906 4.4 -27.6°
Drops below altitude 10° 22:11:01 10° 341° (NNW) 2,459 7.2 -28.6°
Sets 22:13:24 0° 344° (NNW) 3,399 8.0 -29.1°
